Farmingdale, NY

3:59 AM EDT on May 29, 2017 (GMT -0400)
Republic

Weather History for KFRG - February, 2014

Change the Weather History Date:

Sunday, February 2, 2014

  Actual Average Record
Temperature  
Mean Temperature 42 °F -  
Max Temperature 52 °F 38 °F 52 °F (2009)
Min Temperature 33 °F 24 °F 15 °F (2015)
Degree Days  
Heating Degree Days 22    
Moisture  
Dew Point 35 °F    
Average Humidity 86    
Maximum Humidity 100    
Minimum Humidity 59    
Precipitation  
Precipitation 0.00 in - - ()
Sea Level Pressure  
Sea Level Pressure 29.97 in    
Wind  
Wind Speed 2 mph (WSW)    
Max Wind Speed 7 mph    
Max Gust Speed -    
Visibility 5 miles    
Events Fog    
Averages and records for this station are not official NWS values.
T = Trace of Precipitation, MM = Missing Value Source: NWS Daily Summary

Daily Weather History Graph

Daily Weather History Graph

Search for Another Location

Airport or City:

Trip Planner

Search our weather history database for the weather conditions in past years. The results will help you decide how hot, cold, wet, or windy it might be!

Date:

Astronomy

Feb. 02, 2014 Rise Set
Actual Time 7:02 AM EST 5:12 PM EST
Civil Twilight 6:33 AM EST 5:41 PM EST
Nautical Twilight 6:01 AM EST 6:14 PM EST
Astronomical Twilight 5:29 AM EST 6:46 PM EST
Moon 8:26 AM EST (2/2) 8:55 PM EST (2/2)
Length of Visible Light 11h 07m
Length of Day
10h 09m
Waxing Crescent, 11% of the Moon is Illuminated
Feb 2
Waxing Crescent
Feb 6
First Quarter
Feb 14
Full
Feb 22
Last Quarter
Mar 1
New

Hourly Weather History & Observations

Time (EST) Temp. Windchill Dew Point Humidity Pressure Visibility Wind Dir Wind Speed Gust Speed Precip Events Conditions
12:51 AM 33.8 °F - 32.0 °F 93% 30.01 in 4.0 mi Calm Calm - N/A   Scattered Clouds
12:53 AM 33.1 °F - 30.9 °F 92% 30.01 in 4.0 mi Calm Calm - N/A   Scattered Clouds
1:03 AM 33.8 °F 30.8 °F 32.0 °F 93% 30.00 in 5.0 mi North 3.5 mph - N/A   Mostly Cloudy
1:53 AM 36.0 °F - 35.1 °F 97% 29.97 in 4.0 mi Calm Calm - N/A   Overcast
2:04 AM 35.6 °F - 35.6 °F 100% 29.97 in 4.0 mi Calm Calm - N/A   Overcast
2:53 AM 35.1 °F - 35.1 °F 100% 29.96 in 4.0 mi Calm Calm - N/A   Overcast
3:14 AM 35.6 °F - 33.8 °F 93% 29.94 in 1.8 mi Calm Calm - N/A   Overcast
3:24 AM 35.6 °F - 33.8 °F 93% 29.94 in 0.2 mi Calm Calm - N/A Fog Fog
3:53 AM 35.1 °F - 35.1 °F 100% 29.93 in 0.2 mi Calm Calm - N/A Fog Fog
4:53 AM 36.0 °F - 36.0 °F 100% 29.93 in 0.2 mi Calm Calm - N/A Fog Fog
5:53 AM 35.1 °F 32.2 °F 35.1 °F 100% 29.94 in 0.2 mi WSW 3.5 mph - N/A Fog Fog
6:53 AM 34.0 °F 31.0 °F 34.0 °F 100% 29.93 in 0.2 mi SSW 3.5 mph - N/A Fog Fog
7:53 AM 34.0 °F 28.8 °F 34.0 °F 100% 29.96 in 0.2 mi SW 5.8 mph - N/A Fog Fog
8:53 AM 36.0 °F 32.1 °F 36.0 °F 100% 29.96 in 0.2 mi WSW 4.6 mph - N/A Fog Fog
9:00 AM 35.6 °F 31.7 °F 35.6 °F 100% 29.96 in 0.5 mi WSW 4.6 mph - N/A Fog Fog
9:12 AM 37.4 °F 33.8 °F 37.4 °F 100% 29.96 in 1.8 mi WSW 4.6 mph - N/A   Overcast
9:20 AM 37.4 °F 34.9 °F 37.4 °F 100% 29.96 in 2.0 mi SSW 3.5 mph - N/A   Overcast
9:42 AM 37.4 °F 32.8 °F 37.4 °F 100% 29.95 in 3.0 mi SW 5.8 mph - N/A   Mostly Cloudy
9:49 AM 37.4 °F 32.1 °F 37.4 °F 100% 29.95 in 4.0 mi SW 6.9 mph - N/A   Scattered Clouds
9:53 AM 37.0 °F 33.3 °F 37.0 °F 100% 29.96 in 4.0 mi SW 4.6 mph - N/A   Partly Cloudy
10:53 AM 44.1 °F 40.8 °F 37.9 °F 79% 29.96 in 6.0 mi SSW 5.8 mph - N/A   Haze
11:53 AM 46.9 °F - 36.0 °F 66% 29.96 in 8.0 mi SW 4.6 mph - N/A   Mostly Cloudy
12:53 PM 51.1 °F - 37.0 °F 59% 29.94 in 8.0 mi SW 4.6 mph - N/A   Clear
1:53 PM 52.0 °F - 37.9 °F 59% 29.94 in 8.0 mi South 6.9 mph - N/A   Scattered Clouds
2:53 PM 48.0 °F - 37.0 °F 66% 29.94 in 8.0 mi South 6.9 mph - N/A   Overcast
3:53 PM 46.9 °F - 36.0 °F 66% 29.94 in 9.0 mi Calm Calm - N/A   Partly Cloudy
4:53 PM 45.0 °F 42.6 °F 35.1 °F 68% 29.95 in 9.0 mi South 4.6 mph - N/A   Clear
5:53 PM 44.1 °F - 35.1 °F 71% 29.99 in 9.0 mi Calm Calm - N/A   Scattered Clouds
6:53 PM 39.0 °F - 34.0 °F 82% 30.00 in 9.0 mi Calm Calm - N/A   Clear
7:53 PM 46.0 °F 42.5 °F 36.0 °F 68% 30.04 in 10.0 mi North 6.9 mph - N/A   Overcast
8:53 PM 45.0 °F 41.2 °F 36.0 °F 71% 30.04 in 10.0 mi NNW 6.9 mph - N/A   Overcast
9:53 PM 44.1 °F 42.5 °F 36.0 °F 73% 30.07 in 10.0 mi NNW 3.5 mph - N/A   Overcast
10:53 PM 43.0 °F 38.8 °F 35.1 °F 74% 30.08 in 10.0 mi North 6.9 mph - N/A   Overcast
11:53 PM 42.1 °F 38.4 °F 33.1 °F 70% 30.08 in 10.0 mi North 5.8 mph - N/A   Overcast